Location: Martin
(32.0982°N, 93.2193°W)
Time: 16:04:22
(UTC+00:00)

Hubble Space Telescope - Pass Details

Date: 26 September 2024
Orbit: 503 x 507 km, 28.5° (Epoch: 12 October)

Event Time Altitude Azimuth Distance (km) Brightness Sun altitude
Exits shadow 11:15:00 - 224° (SW) 1,751 2.9 -11.2°
Reaches altitude 10° 11:15:10 10° 222° (SW) 1,694 2.9 -11.2°
Maximum altitude 11:18:30 27° 164° (SSE) 985 2.2 -10.5°
Drops below altitude 10° 11:21:51 10° 105° (ESE) 1,697 4.6 -9.8°
Sets 11:24:17 0° 93° (E) 2,582 6.5 -9.2°
